| time (UTC) | temp F | wind direction | speed MPH | gust MPH | rain 1hr in | rain 24hr in | rain mn in | humidity % | barometer mb |
| 20260505025147 | 68 | 82 | 2.0 | 5.0 | 0.00 | 0.00 | 0.00 | 63 | 1008.2 |
| 20260505024645 | 69 | 57 | 1.0 | 5.0 | 0.00 | 0.00 | 0.00 | 62 | 1008.1 |
| 20260505024142 | 69 | 135 | 0.0 | 6.0 | 0.00 | 0.00 | 0.00 | 61 | 1007.9 |
| 20260505023639 | 69 | 147 | 2.0 | 5.0 | 0.00 | 0.00 | 0.00 | 61 | 1008.1 |
| 20260505023136 | 69 | 156 | 4.0 | 6.0 | 0.00 | 0.00 | 0.00 | 61 | 1008.0 |
| 20260505022634 | 69 | 212 | 1.0 | 4.0 | 0.00 | 0.00 | 0.00 | 61 | 1007.8 |
| 20260505022131 | 69 | 320 | 0.0 | 4.0 | 0.00 | 0.00 | 0.00 | 61 | 1007.8 |
| 20260505021627 | 70 | 159 | 2.0 | 3.0 | 0.00 | 0.00 | 0.00 | 59 | 1007.6 |
| 20260505021124 | 70 | 157 | 3.0 | 5.0 | 0.00 | 0.00 | 0.00 | 59 | 1007.4 |
| 20260505020620 | 70 | 152 | 4.0 | 5.0 | 0.00 | 0.00 | 0.00 | 58 | 1007.4 |
| 20260505020116 | 70 | 165 | 5.0 | 7.0 | 0.00 | 0.00 | 0.00 | 58 | 1007.2 |
| 20260505015613 | 70 | 277 | 1.0 | 4.0 | 0.00 | 0.00 | 0.00 | 59 | 1007.2 |
| 20260505015110 | 71 | 173 | 2.0 | 4.0 | 0.00 | 0.00 | 0.00 | 57 | 1007.0 |
| 20260505014607 | 71 | 204 | 2.0 | 6.0 | 0.00 | 0.00 | 0.00 | 57 | 1007.0 |
| 20260505014104 | 71 | 177 | 2.0 | 5.0 | 0.00 | 0.00 | 0.00 | 57 | 1006.9 |
| 20260505013601 | 71 | 228 | 8.0 | 10.0 | 0.00 | 0.00 | 0.00 | 56 | 1006.9 |
| 20260505013058 | 72 | 180 | 2.0 | 10.0 | 0.00 | 0.00 | 0.00 | 57 | 1007.1 |
| 20260505012556 | 72 | 191 | 2.0 | 5.0 | 0.00 | 0.00 | 0.00 | 56 | 1007.0 |
| 20260505012053 | 72 | 128 | 2.0 | 3.0 | 0.00 | 0.00 | 0.00 | 57 | 1007.0 |
| 20260505011548 | 72 | 137 | 2.0 | 5.0 | 0.00 | 0.00 | 0.00 | 56 | 1007.1 |
| 20260505011046 | 72 | 158 | 3.0 | 3.0 | 0.00 | 0.00 | 0.00 | 58 | 1007.0 |
| 20260505010541 | 72 | 212 | 2.0 | 4.0 | 0.00 | 0.00 | 0.00 | 57 | 1006.8 |
| 20260505010038 | 73 | 194 | 2.0 | 6.0 | 0.00 | 0.00 | 0.00 | 57 | 1006.8 |
| 20260505005534 | 73 | 226 | 0.0 | 5.0 | 0.00 | 0.00 | 0.00 | 56 | 1006.8 |
| 20260505005032 | 73 | 107 | 1.0 | 5.0 | 0.00 | 0.00 | 0.00 | 57 | 1006.7 |
| 20260505004529 | 73 | 171 | 0.0 | 4.0 | 0.00 | 0.00 | 0.00 | 56 | 1006.7 |
| 20260505004025 | 74 | 139 | 2.0 | 4.0 | 0.00 | 0.00 | 0.00 | 55 | 1006.7 |
| 20260505003523 | 74 | 171 | 0.0 | 6.0 | 0.00 | 0.00 | 0.00 | 54 | 1006.6 |
| 20260505003020 | 74 | 191 | 2.0 | 5.0 | 0.00 | 0.00 | 0.00 | 54 | 1006.7 |
| 20260505002521 | 75 | 144 | 0.0 | 6.0 | 0.00 | 0.00 | 0.00 | 52 | 1006.7 |
| 20260505002020 | 75 | 246 | 3.0 | 6.0 | 0.00 | 0.00 | 0.00 | 52 | 1006.6 |
| 20260505001517 | 76 | 137 | 1.0 | 3.0 | 0.00 | 0.00 | 0.00 | 50 | 1006.7 |
| 20260505001014 | 76 | 187 | 2.0 | 8.0 | 0.00 | 0.00 | 0.00 | 50 | 1006.6 |
| 20260505000511 | 76 | 232 | 2.0 | 11.0 | 0.00 | 0.00 | 0.00 | 50 | 1006.5 |
| 20260505000009 | 76 | 191 | 2.0 | 4.0 | 0.00 | 0.00 | 0.00 | 50 | 1006.7 |
| 20260504235505 | 77 | 245 | 2.0 | 5.0 | 0.00 | 0.00 | 0.00 | 50 | 1006.7 |
| 20260504235002 | 77 | 219 | 2.0 | 3.0 | 0.00 | 0.00 | 0.00 | 49 | 1006.6 |
| 20260504234459 | 77 | 231 | 4.0 | 11.0 | 0.00 | 0.00 | 0.00 | 49 | 1006.6 |
| 20260504233955 | 77 | 154 | 2.0 | 12.0 | 0.00 | 0.00 | 0.00 | 48 | 1006.8 |
| 20260504233451 | 77 | 255 | 7.0 | 14.0 | 0.00 | 0.00 | 0.00 | 47 | 1006.6 |
| 20260504232948 | 78 | 237 | 9.0 | 14.0 | 0.00 | 0.00 | 0.00 | 47 | 1006.5 |
| 20260504232445 | 78 | 237 | 7.0 | 17.0 | 0.00 | 0.00 | 0.00 | 47 | 1006.8 |
| 20260504231943 | 78 | 196 | 7.0 | 13.0 | 0.00 | 0.00 | 0.00 | 47 | 1006.6 |
| 20260504231439 | 78 | 237 | 8.0 | 20.0 | 0.00 | 0.00 | 0.00 | 47 | 1006.7 |
| 20260504230935 | 79 | 230 | 5.0 | 8.0 | 0.00 | 0.00 | 0.00 | 46 | 1006.7 |
| 20260504230432 | 79 | 229 | 6.0 | 12.0 | 0.00 | 0.00 | 0.00 | 47 | 1006.8 |
| 20260504225931 | 78 | 250 | 4.0 | 13.0 | 0.00 | 0.00 | 0.00 | 46 | 1006.7 |
| 20260504225427 | 79 | 250 | 4.0 | 13.0 | 0.00 | 0.00 | 0.00 | 45 | 1007.0 |
| 20260504224925 | 80 | 259 | 11.0 | 12.0 | 0.00 | 0.00 | 0.00 | 44 | 1006.7 |
| 20260504224421 | 80 | 260 | 2.0 | 19.0 | 0.00 | 0.00 | 0.00 | 44 | 1006.5 |
| 20260504223919 | 80 | 172 | 5.0 | 13.0 | 0.00 | 0.00 | 0.00 | 44 | 1006.5 |
| 20260504223414 | 80 | 214 | 2.0 | 13.0 | 0.00 | 0.00 | 0.00 | 44 | 1006.7 |
| 20260504222910 | 80 | 248 | 11.0 | 15.0 | 0.00 | 0.00 | 0.00 | 44 | 1006.5 |
| 20260504222408 | 80 | 240 | 7.0 | 19.0 | 0.00 | 0.00 | 0.00 | 44 | 1006.6 |
| 20260504221906 | 80 | 269 | 2.0 | 14.0 | 0.00 | 0.00 | 0.00 | 43 | 1006.4 |
| 20260504221402 | 80 | 327 | 6.0 | 15.0 | 0.00 | 0.00 | 0.00 | 44 | 1006.4 |
| 20260504220859 | 80 | 204 | 4.0 | 9.0 | 0.00 | 0.00 | 0.00 | 43 | 1006.5 |
| 20260504220356 | 80 | 222 | 5.0 | 11.0 | 0.00 | 0.00 | 0.00 | 44 | 1006.3 |
| 20260504215853 | 81 | 221 | 3.0 | 11.0 | 0.00 | 0.00 | 0.00 | 44 | 1006.7 |
| 20260504215349 | 80 | 260 | 8.0 | 15.0 | 0.00 | 0.00 | 0.00 | 45 | 1006.4 |
| 20260504214846 | 81 | 257 | 6.0 | 7.0 | 0.00 | 0.00 | 0.00 | 44 | 1006.7 |
| 20260504214343 | 82 | 279 | 4.0 | 9.0 | 0.00 | 0.00 | 0.00 | 45 | 1006.4 |
| 20260504213839 | 81 | 238 | 6.0 | 11.0 | 0.00 | 0.00 | 0.00 | 43 | 1006.6 |
| 20260504213335 | 81 | 255 | 5.0 | 12.0 | 0.00 | 0.00 | 0.00 | 44 | 1006.7 |
| 20260504212833 | 81 | 281 | 5.0 | 14.0 | 0.00 | 0.00 | 0.00 | 42 | 1006.7 |
| 20260504212328 | 81 | 266 | 3.0 | 9.0 | 0.00 | 0.00 | 0.00 | 43 | 1006.8 |
| 20260504211827 | 81 | 214 | 7.0 | 12.0 | 0.00 | 0.00 | 0.00 | 43 | 1006.7 |
| 20260504211328 | 81 | 115 | 4.0 | 10.0 | 0.00 | 0.00 | 0.00 | 43 | 1006.8 |
| 20260504210825 | 80 | 299 | 4.0 | 20.0 | 0.00 | 0.00 | 0.00 | 44 | 1006.8 |
| 20260504210322 | 81 | 254 | 3.0 | 19.0 | 0.00 | 0.00 | 0.00 | 43 | 1007.2 |
| 20260504205819 | 81 | 272 | 11.0 | 13.0 | 0.00 | 0.00 | 0.00 | 42 | 1007.1 |
| 20260504205317 | 81 | 237 | 8.0 | 9.0 | 0.00 | 0.00 | 0.00 | 42 | 1007.0 |
| 20260504204815 | 81 | 85 | 3.0 | 17.0 | 0.00 | 0.00 | 0.00 | 43 | 1007.3 |
| 20260504204313 | 80 | 243 | 8.0 | 22.0 | 0.00 | 0.00 | 0.00 | 46 | 1007.4 |
| 20260504203812 | 81 | 276 | 4.0 | 15.0 | 0.00 | 0.00 | 0.00 | 44 | 1007.4 |
| 20260504203309 | 82 | 152 | 2.0 | 11.0 | 0.00 | 0.00 | 0.00 | 42 | 1007.5 |
| 20260504202804 | 82 | 172 | 2.0 | 11.0 | 0.00 | 0.00 | 0.00 | 44 | 1007.8 |
| 20260504202302 | 82 | 229 | 2.0 | 13.0 | 0.00 | 0.00 | 0.00 | 44 | 1007.8 |
| 20260504201758 | 81 | 166 | 4.0 | 12.0 | 0.00 | 0.00 | 0.00 | 42 | 1007.9 |
| 20260504201255 | 81 | 255 | 15.0 | 20.0 | 0.00 | 0.00 | 0.00 | 41 | 1007.9 |
| 20260504200754 | 81 | 313 | 2.0 | 10.0 | 0.00 | 0.00 | 0.00 | 44 | 1007.8 |
| 20260504200249 | 79 | 242 | 15.0 | 22.0 | 0.00 | 0.00 | 0.00 | 43 | 1008.1 |
| 20260504195746 | 80 | 252 | 8.0 | 29.0 | 0.00 | 0.00 | 0.00 | 43 | 1008.2 |
| 20260504195241 | 81 | 194 | 4.0 | 11.0 | 0.00 | 0.00 | 0.00 | 43 | 1007.9 |
| 20260504194739 | 82 | 249 | 8.0 | 12.0 | 0.00 | 0.00 | 0.00 | 44 | 1008.1 |
| 20260504194235 | 80 | 258 | 7.0 | 17.0 | 0.00 | 0.00 | 0.00 | 43 | 1008.4 |
| 20260504193731 | 81 | 222 | 7.0 | 12.0 | 0.00 | 0.00 | 0.00 | 43 | 1008.3 |
| 20260504193229 | 81 | 225 | 8.0 | 12.0 | 0.00 | 0.00 | 0.00 | 43 | 1008.3 |
| 20260504192727 | 80 | 242 | 5.0 | 12.0 | 0.00 | 0.00 | 0.00 | 44 | 1008.5 |
| 20260504192225 | 80 | 271 | 5.0 | 15.0 | 0.00 | 0.00 | 0.00 | 45 | 1008.4 |
| 20260504191723 | 80 | 275 | 10.0 | 21.0 | 0.00 | 0.00 | 0.00 | 44 | 1008.6 |
| 20260504191220 | 80 | 277 | 7.0 | 15.0 | 0.00 | 0.00 | 0.00 | 44 | 1008.5 |
| 20260504190715 | 79 | 227 | 6.0 | 15.0 | 0.00 | 0.00 | 0.00 | 44 | 1008.5 |
| 20260504190212 | 80 | 271 | 9.0 | 15.0 | 0.00 | 0.00 | 0.00 | 44 | 1008.4 |
| 20260504185708 | 79 | 244 | 8.0 | 15.0 | 0.00 | 0.00 | 0.00 | 44 | 1008.3 |
| 20260504185205 | 80 | 236 | 8.0 | 15.0 | 0.00 | 0.00 | 0.00 | 44 | 1008.6 |
| 20260504184701 | 79 | 299 | 6.0 | 11.0 | 0.00 | 0.00 | 0.00 | 44 | 1008.5 |
| 20260504184156 | 80 | 238 | 13.0 | 22.0 | 0.00 | 0.00 | 0.00 | 43 | 1008.5 |
| 20260504183653 | 80 | 251 | 10.0 | 14.0 | 0.00 | 0.00 | 0.00 | 45 | 1008.5 |
| 20260504183150 | 79 | 180 | 5.0 | 17.0 | 0.00 | 0.00 | 0.00 | 46 | 1008.5 |
| 20260504182648 | 79 | 205 | 6.0 | 14.0 | 0.00 | 0.00 | 0.00 | 45 | 1008.5 |
| 20260504182145 | 79 | 255 | 7.0 | 12.0 | 0.00 | 0.00 | 0.00 | 45 | 1008.4 |
| 20260504181643 | 78 | 253 | 6.0 | 14.0 | 0.00 | 0.00 | 0.00 | 45 | 1008.3 |
| 20260504181140 | 78 | 243 | 12.0 | 21.0 | 0.00 | 0.00 | 0.00 | 45 | 1008.6 |
| 20260504180639 | 79 | 208 | 5.0 | 9.0 | 0.00 | 0.00 | 0.00 | 44 | 1008.5 |
| 20260504180138 | 78 | 206 | 4.0 | 9.0 | 0.00 | 0.00 | 0.00 | 45 | 1008.5 |
| 20260504175634 | 78 | 245 | 11.0 | 22.0 | 0.00 | 0.00 | 0.00 | 45 | 1008.5 |
| 20260504175131 | 78 | 217 | 3.0 | 15.0 | 0.00 | 0.00 | 0.00 | 47 | 1008.7 |
| 20260504174630 | 78 | 54 | 5.0 | 14.0 | 0.00 | 0.00 | 0.00 | 45 | 1008.7 |
| 20260504174125 | 78 | 240 | 10.0 | 13.0 | 0.00 | 0.00 | 0.00 | 45 | 1008.9 |
| 20260504173623 | 77 | 230 | 10.0 | 20.0 | 0.00 | 0.00 | 0.00 | 46 | 1009.1 |
| 20260504173120 | 78 | 277 | 4.0 | 14.0 | 0.00 | 0.00 | 0.00 | 45 | 1008.8 |
| 20260504172616 | 77 | 239 | 11.0 | 20.0 | 0.00 | 0.00 | 0.00 | 47 | 1008.7 |
| 20260504172113 | 77 | 241 | 9.0 | 15.0 | 0.00 | 0.00 | 0.00 | 45 | 1008.9 |
| 20260504171609 | 77 | 250 | 9.0 | 15.0 | 0.00 | 0.00 | 0.00 | 45 | 1008.9 |
| 20260504171107 | 77 | 274 | 4.0 | 11.0 | 0.00 | 0.00 | 0.00 | 45 | 1008.9 |
| 20260504170602 | 76 | 245 | 10.0 | 17.0 | 0.00 | 0.00 | 0.00 | 47 | 1009.1 |
| 20260504150946 | 71 | 200 | 5.0 | 13.0 | 0.00 | 0.00 | 0.00 | 52 | 1009.9 |
| 20260504150443 | 71 | 239 | 9.0 | 11.0 | 0.00 | 0.00 | 0.00 | 53 | 1009.9 |
| 20260504140909 | 67 | 265 | 4.0 | 11.0 | 0.00 | 0.00 | 0.00 | 56 | 1010.7 |
| 20260504140405 | 68 | 235 | 9.0 | 12.0 | 0.00 | 0.00 | 0.00 | 56 | 1010.7 |
| 20260504130331 | 65 | 250 | 7.0 | 13.0 | 0.00 | 0.00 | 0.00 | 60 | 1010.9 |
| 20260504120254 | 62 | 199 | 4.0 | 13.0 | 0.00 | 0.00 | 0.00 | 64 | 1010.9 |
| 20260504110218 | 62 | 269 | 0.0 | 5.0 | 0.00 | 0.00 | 0.00 | 64 | 1010.7 |
| 20260504100142 | 63 | 245 | 6.0 | 6.0 | 0.00 | 0.00 | 0.00 | 61 | 1011.0 |
| 20260504090104 | 63 | 210 | 4.0 | 10.0 | 0.00 | 0.00 | 0.00 | 62 | 1011.1 |
| 20260504081535 | 62 | 219 | 2.0 | 4.0 | 0.00 | 0.00 | 0.00 | 64 | 1011.2 |
| 20260504081030 | 62 | 253 | 5.0 | 9.0 | 0.00 | 0.00 | 0.00 | 66 | 1011.2 |
| 20260504080527 | 61 | 335 | 1.0 | 2.0 | 0.00 | 0.00 | 0.00 | 67 | 1011.2 |
| 20260504050340 | 62 | 239 | 1.0 | 3.0 | 0.00 | 0.00 | 0.00 | 67 | 1012.6 |
| 20260504045838 | 62 | 213 | 1.0 | 3.0 | 0.00 | 0.00 | 0.00 | 66 | 1012.7 |
| 20260504045338 | 62 | 145 | 2.0 | 2.0 | 0.00 | 0.00 | 0.00 | 66 | 1012.7 |
| 20260504044835 | 62 | 241 | 2.0 | 5.0 | 0.00 | 0.00 | 0.00 | 66 | 1012.8 |
| 20260504044332 | 62 | 152 | 0.0 | 5.0 | 0.00 | 0.00 | 0.00 | 66 | 1012.9 |
| 20260504043830 | 63 | 266 | 1.0 | 4.0 | 0.00 | 0.00 | 0.00 | 66 | 1012.7 |
| 20260504043326 | 62 | 232 | 1.0 | 2.0 | 0.00 | 0.00 | 0.00 | 67 | 1012.8 |
| 20260504042824 | 63 | 237 | 4.0 | 5.0 | 0.00 | 0.00 | 0.00 | 64 | 1012.7 |
| 20260504042320 | 62 | 228 | 2.0 | 4.0 | 0.00 | 0.00 | 0.00 | 65 | 1013.0 |
| 20260504041816 | 63 | 55 | 1.0 | 5.0 | 0.00 | 0.00 | 0.00 | 64 | 1013.0 |
| 20260504041312 | 63 | 199 | 3.0 | 5.0 | 0.00 | 0.00 | 0.00 | 64 | 1013.1 |
| 20260504040809 | 63 | 103 | 3.0 | 5.0 | 0.00 | 0.00 | 0.00 | 64 | 1013.0 |
| 20260504040306 | 62 | 97 | 2.0 | 2.0 | 0.00 | 0.00 | 0.00 | 66 | 1013.0 |
| 20260504035802 | 63 | 128 | 2.0 | 4.0 | 0.00 | 0.00 | 0.00 | 64 | 1012.9 |
| 20260504035259 | 63 | 217 | 2.0 | 7.0 | 0.00 | 0.00 | 0.00 | 64 | 1013.3 |
| 20260504034756 | 63 | 144 | 3.0 | 6.0 | 0.00 | 0.00 | 0.00 | 63 | 1013.3 |
| 20260504034254 | 63 | 125 | 2.0 | 5.0 | 0.00 | 0.00 | 0.00 | 63 | 1013.3 |
| 20260504033751 | 63 | 234 | 2.0 | 2.0 | 0.00 | 0.00 | 0.00 | 63 | 1013.6 |
| 20260504033249 | 63 | 141 | 2.0 | 4.0 | 0.00 | 0.00 | 0.00 | 64 | 1013.6 |
| 20260504032745 | 63 | 230 | 0.0 | 2.0 | 0.00 | 0.00 | 0.00 | 64 | 1013.6 |
| 20260504032242 | 63 | 154 | 0.0 | 4.0 | 0.00 | 0.00 | 0.00 | 65 | 1013.6 |
| 20260504031739 | 63 | 179 | 1.0 | 3.0 | 0.00 | 0.00 | 0.00 | 65 | 1013.7 |
| 20260504031237 | 63 | 169 | 2.0 | 2.0 | 0.00 | 0.00 | 0.00 | 63 | 1013.8 |
| 20260504030732 | 63 | 142 | 0.0 | 2.0 | 0.00 | 0.00 | 0.00 | 64 | 1013.6 |
| 20260504030230 | 63 | 157 | 2.0 | 3.0 | 0.00 | 0.00 | 0.00 | 62 | 1013.7 |
| 20260504025726 | 64 | 107 | 2.0 | 3.0 | 0.00 | 0.00 | 0.00 | 62 | 1013.8 |